TimeCST,TemperatureF,Dew PointF,Humidity,Sea Level PressureIn,VisibilityMPH,Wind Direction,Wind SpeedMPH,Gust SpeedMPH,PrecipitationIn,Events,Conditions,WindDirDegrees,DateUTC
12:01 AM,44.6,32.0,61,30.09,10.0,SSE,4.6,-,N/A,,Clear,150,2012-11-19 06:01:00
12:21 AM,44.6,32.0,61,30.09,10.0,SSE,4.6,-,N/A,,Clear,160,2012-11-19 06:21:00
12:41 AM,44.6,32.0,61,30.08,10.0,SSE,4.6,-,N/A,,Clear,150,2012-11-19 06:41:00
1:01 AM,44.6,32.0,61,30.09,10.0,SSE,3.5,-,N/A,,Clear,150,2012-11-19 07:01:00
1:21 AM,44.6,33.8,66,30.08,10.0,SSE,4.6,-,N/A,,Mostly Cloudy,160,2012-11-19 07:21:00
1:41 AM,44.6,32.0,61,30.08,10.0,SSE,3.5,-,N/A,,Overcast,150,2012-11-19 07:41:00
2:01 AM,44.6,32.0,61,30.07,10.0,SSE,5.8,-,N/A,,Overcast,160,2012-11-19 08:01:00
2:21 AM,44.6,32.0,61,30.07,10.0,SSE,3.5,-,N/A,,Mostly Cloudy,150,2012-11-19 08:21:00
2:41 AM,44.6,32.0,61,30.07,10.0,SE,4.6,-,N/A,,Mostly Cloudy,140,2012-11-19 08:41:00
3:01 AM,44.6,32.0,61,30.06,10.0,SSE,4.6,-,N/A,,Mostly Cloudy,160,2012-11-19 09:01:00
3:21 AM,42.8,32.0,66,30.06,10.0,SSE,3.5,-,N/A,,Clear,150,2012-11-19 09:21:00
3:41 AM,41.0,32.0,70,30.06,10.0,Calm,Calm,-,N/A,,Clear,0,2012-11-19 09:41:00
4:01 AM,37.4,30.2,75,30.06,10.0,Calm,Calm,-,N/A,,Clear,0,2012-11-19 10:01:00
4:21 AM,37.4,30.2,75,30.05,10.0,Calm,Calm,-,N/A,,Clear,0,2012-11-19 10:21:00
4:41 AM,35.6,30.2,81,30.05,10.0,Calm,Calm,-,N/A,,Clear,0,2012-11-19 10:41:00
5:01 AM,37.4,30.2,75,30.04,10.0,SE,3.5,-,N/A,,Scattered Clouds,130,2012-11-19 11:01:00
5:21 AM,33.8,28.4,81,30.05,10.0,Calm,Calm,-,N/A,,Mostly Cloudy,0,2012-11-19 11:21:00
5:41 AM,35.6,30.2,81,30.05,10.0,Calm,Calm,-,N/A,,Mostly Cloudy,0,2012-11-19 11:41:00
6:01 AM,37.4,32.0,81,30.04,10.0,SSE,3.5,-,N/A,,Mostly Cloudy,160,2012-11-19 12:01:00
6:21 AM,41.0,32.0,70,30.04,10.0,SE,3.5,-,N/A,,Mostly Cloudy,140,2012-11-19 12:21:00
6:41 AM,42.8,32.0,66,30.04,10.0,Calm,Calm,-,N/A,,Overcast,0,2012-11-19 12:41:00
7:01 AM,42.8,32.0,66,30.05,10.0,Calm,Calm,-,N/A,,Overcast,0,2012-11-19 13:01:00
7:41 AM,35.6,30.2,81,30.06,10.0,Calm,Calm,-,N/A,,Clear,0,2012-11-19 13:41:00
8:01 AM,33.8,30.2,87,30.06,10.0,Calm,Calm,-,N/A,,Mostly Cloudy,0,2012-11-19 14:01:00
8:21 AM,35.6,32.0,87,30.05,10.0,Calm,Calm,-,N/A,,Overcast,0,2012-11-19 14:21:00
8:41 AM,37.4,32.0,81,30.05,10.0,Calm,Calm,-,N/A,,Overcast,0,2012-11-19 14:41:00
9:01 AM,42.8,33.8,70,30.05,10.0,SE,3.5,-,N/A,,Overcast,130,2012-11-19 15:01:00
9:20 AM,44.6,33.8,66,30.05,10.0,SSE,5.8,-,N/A,,Overcast,160,2012-11-19 15:20:00
9:41 AM,46.4,33.8,62,30.05,10.0,South,5.8,-,N/A,,Overcast,170,2012-11-19 15:41:00
10:01 AM,46.4,33.8,62,30.05,10.0,South,5.8,-,N/A,,Overcast,170,2012-11-19 16:01:00
10:21 AM,48.2,33.8,58,30.05,10.0,South,8.1,-,N/A,,Overcast,170,2012-11-19 16:21:00
10:41 AM,48.2,33.8,58,30.04,10.0,South,8.1,-,N/A,,Overcast,170,2012-11-19 16:41:00
11:01 AM,50.0,35.6,58,30.04,10.0,South,9.2,-,N/A,,Overcast,190,2012-11-19 17:01:00
11:21 AM,50.0,35.6,58,30.04,10.0,South,8.1,-,N/A,,Overcast,180,2012-11-19 17:21:00
11:41 AM,50.0,35.6,58,30.03,10.0,South,8.1,-,N/A,,Overcast,170,2012-11-19 17:41:00
12:01 PM,50.0,35.6,58,30.03,10.0,South,8.1,-,N/A,,Overcast,190,2012-11-19 18:01:00
12:21 PM,50.0,35.6,58,30.04,10.0,SSW,5.8,-,N/A,,Overcast,210,2012-11-19 18:21:00
12:41 PM,50.0,35.6,58,30.03,10.0,South,6.9,-,N/A,,Overcast,170,2012-11-19 18:41:00
1:01 PM,50.0,35.6,58,30.03,10.0,South,3.5,-,N/A,,Overcast,180,2012-11-19 19:01:00
1:21 PM,53.6,35.6,51,30.02,10.0,South,4.6,-,N/A,,Overcast,170,2012-11-19 19:21:00
1:41 PM,53.6,35.6,51,30.03,10.0,South,4.6,-,N/A,,Overcast,170,2012-11-19 19:41:00
2:01 PM,53.6,35.6,51,30.03,10.0,SSE,3.5,-,N/A,,Overcast,160,2012-11-19 20:01:00
2:21 PM,53.6,35.6,51,30.02,10.0,SSE,5.8,-,N/A,,Overcast,160,2012-11-19 20:21:00
2:41 PM,53.6,35.6,51,30.02,10.0,SSE,4.6,-,N/A,,Mostly Cloudy,160,2012-11-19 20:41:00
3:01 PM,53.6,35.6,51,30.02,10.0,SSE,3.5,-,N/A,,Clear,160,2012-11-19 21:01:00
3:21 PM,53.6,35.6,51,30.02,10.0,SE,4.6,-,N/A,,Clear,130,2012-11-19 21:21:00
3:41 PM,53.6,35.6,51,30.02,10.0,SSE,4.6,-,N/A,,Clear,150,2012-11-19 21:41:00
4:01 PM,53.6,35.6,51,30.02,10.0,Calm,Calm,-,N/A,,Clear,0,2012-11-19 22:01:00
4:21 PM,50.0,35.6,58,30.03,10.0,Calm,Calm,-,N/A,,Clear,0,2012-11-19 22:21:00
4:41 PM,48.2,35.6,62,30.03,10.0,Calm,Calm,-,N/A,,Clear,0,2012-11-19 22:41:00
5:01 PM,44.6,35.6,71,30.04,10.0,Calm,Calm,-,N/A,,Clear,0,2012-11-19 23:01:00
5:21 PM,42.8,33.8,70,30.04,10.0,Calm,Calm,-,N/A,,Clear,0,2012-11-19 23:21:00
5:41 PM,37.4,32.0,81,30.04,10.0,Calm,Calm,-,N/A,,Clear,0,2012-11-19 23:41:00
6:01 PM,35.6,32.0,87,30.05,10.0,Calm,Calm,-,N/A,,Clear,0,2012-11-20 00:01:00
6:21 PM,35.6,32.0,87,30.05,10.0,Calm,Calm,-,N/A,,Clear,0,2012-11-20 00:21:00
6:41 PM,35.6,32.0,87,30.06,10.0,Calm,Calm,-,N/A,,Clear,0,2012-11-20 00:41:00
7:01 PM,33.8,32.0,93,30.06,10.0,Calm,Calm,-,N/A,,Clear,0,2012-11-20 01:01:00
7:21 PM,33.8,32.0,93,30.06,10.0,Calm,Calm,-,N/A,,Clear,0,2012-11-20 01:21:00
7:41 PM,33.8,30.2,87,30.06,10.0,Calm,Calm,-,N/A,,Clear,0,2012-11-20 01:41:00
8:01 PM,33.8,32.0,93,30.06,10.0,Calm,Calm,-,N/A,,Clear,0,2012-11-20 02:01:00
8:21 PM,33.8,32.0,93,30.06,10.0,Calm,Calm,-,N/A,,Clear,0,2012-11-20 02:21:00
8:41 PM,32.0,30.2,93,30.05,10.0,Calm,Calm,-,N/A,,Clear,0,2012-11-20 02:41:00
9:01 PM,32.0,30.2,93,30.06,10.0,Calm,Calm,-,N/A,,Clear,0,2012-11-20 03:01:00
9:21 PM,32.0,30.2,93,30.05,7.0,Calm,Calm,-,N/A,,Clear,0,2012-11-20 03:21:00
9:41 PM,32.0,30.2,93,30.06,7.0,Calm,Calm,-,N/A,,Clear,0,2012-11-20 03:41:00
10:01 PM,32.0,30.2,93,30.07,5.0,Calm,Calm,-,N/A,,Clear,0,2012-11-20 04:01:00
10:21 PM,32.0,30.2,93,30.07,5.0,Calm,Calm,-,N/A,,Clear,0,2012-11-20 04:21:00
10:41 PM,32.0,30.2,93,30.07,10.0,North,5.8,-,N/A,,Clear,350,2012-11-20 04:41:00
11:01 PM,35.6,33.8,93,30.08,10.0,NNW,6.9,-,N/A,,Clear,340,2012-11-20 05:01:00
11:21 PM,35.6,33.8,93,30.08,10.0,NNW,4.6,-,N/A,,Clear,340,2012-11-20 05:21:00
11:41 PM,35.6,33.8,93,30.08,10.0,NW,6.9,-,N/A,,Scattered Clouds,320,2012-11-20 05:41:00